#timestamp,LO_Frequency,Hit,StdDev 
1646751615.4,286047000.9,N
1646751635.2,286047000.7,N
1646751655.0,286047000.5,N
1646751656.0,286047000.5,N
1646751675.8,286047000.5,N
1646751695.6,286047000.9,N
1646751715.5,286047001.1,N
1646751735.3,286047000.2,N
1646751755.1,286046999.8,N
1646751775.9,286047000.0,N
1646751795.7,286047002.2,N
1646751815.6,286047000.4,N
1646751835.4,286047000.3,N
1646751855.2,286047001.2,N
1646751875.1,286047000.4,N
1646751876.0,286047000.4,N
1646751895.8,286046999.8,N
1646751915.6,286047000.8,N
1646751935.5,286047000.9,N
1646751955.3,286047000.1,N
1646751975.2,286046999.9,N
1646751995.9,286047002.5,N
1646752015.7,286047001.9,N
1646752035.6,286047002.5,N
1646752055.4,286047003.9,Y
1646752075.2,286047002.6,P
1646752095.1,286047001.6,N
1646752096.0,286047001.6,N
1646752115.8,286047002.3,Y
1646752135.7,286047000.1,P
1646752155.5,286047000.2,N
1646752175.3,286047001.0,N
1646752195.2,286047000.7,N
1646752215.0,286046998.5,N
1646752215.9,286046998.5,N
1646752235.8,286046998.7,N
1646752255.6,286046998.5,N
1646752275.4,286046998.8,N
1646752295.3,286047001.2,N
1646752315.1,286046998.5,N
1646752335.8,286047001.1,N
1646752355.7,286047001.2,N
1646752375.5,286046999.0,N
1646752395.4,286046999.4,N
1646752415.2,286047001.0,N
1646752435.0,286046998.1,N
1646752435.9,286046998.1,N
1646752455.8,286046998.3,N
1646752475.6,286046998.2,N
1646752495.4,286047000.7,N
1646752515.3,286046998.1,N
1646752535.1,286047000.3,N
1646752555.9,286047000.1,N
1646752575.7,286047000.3,N
1646752595.5,286047000.4,N
1646752615.4,286046998.5,N
1646752635.2,286047000.3,N
1646752655.0,286047001.0,N
1646752655.9,286047001.0,N
1646752675.8,286047000.6,N
1646752695.6,286047000.8,N
1646752715.5,286046998.6,N
1646752735.3,286046998.5,N
1646752755.1,286046999.1,N
1646752775.9,286046996.8,N
1646752795.7,286046997.5,N
1646752815.6,286046994.9,Y
1646752835.4,286046999.0,P
1646752855.2,286046998.6,P
1646752875.1,286047000.4,N
1646752876.0,286047000.4,N
1646752895.8,286046999.8,N
1646752915.7,286047002.8,Y
1646752935.5,286047002.2,P
1646752955.3,286047001.9,N
1646752975.2,286047002.0,N
1646752995.9,286047003.7,Y
1646753015.7,286047002.7,P
1646753035.6,286047000.5,N
1646753055.4,286047001.1,N
1646753075.3,286047000.6,N
1646753095.1,286047000.4,N
1646753096.0,286047000.4,N
1646753115.8,286047000.2,N
1646753135.7,286047001.0,N
1646753155.5,286047001.2,N
1646753175.3,286046998.8,N
1646753195.2,286046999.8,N
1646753215.0,286047000.4,N
1646753215.9,286047000.4,N
1646753235.8,286047002.3,N
1646753255.6,286047001.8,N
1646753275.4,286047001.5,N
1646753295.3,286047001.9,N
1646753315.1,286047001.5,N
1646753335.8,286047002.3,N
1646753355.7,286047002.2,N
1646753375.5,286047002.3,N
1646753395.4,286046999.7,N
1646753415.2,286047001.8,N
1646753435.0,286047002.6,N
1646753435.9,286047002.6,N
1646753455.8,286046999.8,N
1646753475.6,286047002.2,N
1646753495.4,286047004.4,Y
1646753515.3,286047001.9,P
1646753535.1,286047002.6,P
1646753555.9,286047002.1,P
1646753575.7,286046999.7,N
1646753595.5,286046999.9,N
1646753615.4,286047001.2,N
1646753635.2,286047000.0,N
1646753655.0,286046999.8,N
1646753655.9,286046999.8,N
1646753675.8,286047003.6,Y
1646753695.6,286047002.7,P
1646753715.5,286046999.8,N
1646753735.3,286046998.3,N
1646753755.1,286046998.5,N
1646753775.9,286047000.9,N
1646753795.7,286047000.3,N
1646753815.6,286047000.8,N
1646753835.4,286047000.7,N
1646753855.2,286046998.1,N
1646753875.1,286046999.9,N
1646753876.0,286046999.9,N
1646753895.8,286047000.8,N
1646753915.7,286047001.2,N
1646753935.5,286047000.6,N
1646753955.3,286047000.9,N
1646753975.2,286046998.4,N
1646753995.0,286047000.5,N
1646753995.9,286047000.5,N
1646754015.8,286047000.4,N
1646754035.6,286046999.9,N
1646754055.4,286046999.7,N
1646754075.3,286047000.2,N
1646754095.1,286047000.0,N
1646754115.8,286047000.3,N
1646754135.7,286047000.4,N
1646754155.5,286047001.0,N
1646754175.4,286047000.5,N
1646754195.2,286047002.1,N
1646754215.0,286047002.6,N
1646754215.9,286047002.6,N
1646754235.8,286047001.8,N
1646754255.6,286047001.9,N
1646754275.5,286047002.2,N
1646754295.3,286047000.2,N
1646754315.1,286047002.8,N
1646754335.9,286047000.7,N
1646754355.7,286047001.2,N
1646754375.6,286047000.7,N
1646754395.4,286047000.7,N
1646754415.2,286047002.0,N
1646754435.1,286047001.0,N
1646754436.0,286047001.0,N
1646754455.8,286046998.5,N
1646754475.6,286047000.2,N
1646754495.5,286046998.7,N
1646754515.3,286046999.0,N
1646754535.2,286047000.4,N
1646754555.9,286047001.1,N
1646754575.7,286046998.4,N
1646754595.6,286047001.2,N
1646754615.4,286046999.6,N
1646754635.3,286046997.3,N
1646754655.1,286046997.0,N
1646754656.0,286046997.0,N
1646754675.1,286046999.2,N
1646754676.0,286046999.2,N
1646754695.8,286046996.5,N
1646754715.7,286046998.4,N
1646754735.5,286046998.1,N
1646754755.3,286046996.6,N
1646754775.2,286046995.0,N
1646754795.9,286046995.6,N
1646754815.7,286046999.2,N
1646754835.6,286047000.8,N
1646754855.4,286046998.3,N
1646754875.3,286046998.5,N
1646754895.1,286046998.3,N
1646754896.0,286046998.3,N
1646754915.8,286046998.3,N
1646754935.7,286046998.8,N
1646754955.5,286046998.4,N
1646754975.4,286046999.3,N
1646754995.2,286047001.1,N
1646755015.0,286047000.7,N
1646755015.9,286047000.7,N
1646755035.8,286047000.3,N
1646755055.6,286047001.1,N
1646755075.5,286046999.7,N
1646755095.3,286046999.7,N
1646755115.1,286047002.1,N
1646755135.9,286047002.2,N
1646755155.7,286047002.4,N
1646755175.5,286047002.8,N
1646755195.4,286047002.2,N
